User: anonymous   Login
Location: Unspecified
(0.0000°N, 0.0000°E)
Time: 02:11:34
(UTC+00:00)
Language:

Kitsat-3 - Orbit

View from above orbital plane
View from above orbital plane
View from above satellite
View from above satellite

Ground track
Ground track

The orbit data is extracted from the following two-line orbital elements,

1 25756U 99029A   18110.40037385  .00000037  00000-0  19967-4 0  9991
2 25756  98.4210  36.4050 0014280  23.0700 337.1134 14.53711216  2124
Epoch (UTC): 20 April 2018 09:36:32
Eccentricity: 0.0014280
inclination: 98.4210°
perigee height: 703 km
apogee height: 723 km
right ascension of ascending node: 36.4050°
argument of perigee: 23.0700°
revolutions per day: 14.53711216
mean anomaly at epoch: 337.1134°
orbit number at epoch: 212

The dashed part of the orbit path shows where the satellite is in the earth's shadow,  

DLR